AirNav   Everest Fuels
 
 926 users online  

0MA1 Massachusetts General Hospital Heliport
Boston, Massachusetts, USA

GOING TO BOSTON?


FAA INFORMATION EFFECTIVE 10 OCTOBER 2019

Location

FAA Identifier: 0MA1
Lat/Long: 42-21-49.2600N 071-04-09.2200W
42-21.821000N 071-04.153667W
42.3636833,-71.0692278
(estimated)
Elevation: 195 ft. / 59 m (estimated)
Variation: 16W (1995)
Time zone: UTC -4 (UTC -5 during Standard Time)
Zip code: 02114

Heliport Operations

Heliport use: Private use, MEDICAL USE.
Activation date: 03/1998
Control tower: no
ARTCC: BOSTON CENTER
FSS: BRIDGEPORT FLIGHT SERVICE STATION
NOTAMs facility: FDC (NOTAM-D service not available)
Attendance: CONTINUOUS
Wind indicator: yes
Segmented circle: no

Heliport Communications

WX ASOS at BOS (2.8 nm E): PHONE 617-567-5762
WX ASOS at OWD (11 nm SW): 119.95 (781-762-4314)
WX ASOS at BED (12 nm NW): 124.6 (781-274-9733)
WX ASOS at BVY (15 nm NE): PHONE 978-921-5042

Nearby radio navigation aids

VOR radial/distance  VOR name  Freq  Var
BOSr292/3.6BOSTON VOR/DME112.7016W
LWMr192/22.6LAWRENCE VOR/DME112.5015W
MHTr171/33.1MANCHESTER VOR/DME114.4015W

 
NDB name  Hdg/Dist  Freq  Var  ID
SHAKER HILL155/7.325116WSKR ... -.- .-.
STOGE025/14.939715WOW --- .--
MARSHFIELD328/23.736816WIMR .. -- .-.
TAUNTON011/29.422716WTAN - .- -.

Heliport Services

Runway Information

Helipad H1

Dimensions: 60 x 60 ft. / 18 x 18 m
Surface: asphalt
Latitude: 42-21.821000N
Longitude: 071-04.153667W
Elevation: 195.0 ft.
Traffic pattern: leftleft

Heliport Ownership and Management from official FAA records

Ownership: Privately-owned
Owner: GENERAL HOSPITAL CORPORATION
55 FRUID STREET
BOSTON, MA 02114
Phone 617-726-8616
Manager: BONNIE MICHELMAN
55 FRUIT ST
BOSTON, MA 02114
Phone (617) 726-7979

Additional Remarks

ROOFTOP.
FOR CD CTC BOSTON APCH AT 603-594-5554.

Instrument Procedures

There are no published instrument procedures at 0MA1.

Some nearby airports with instrument procedures:

KBOS - General Edward Lawrence Logan International Airport (3 nm E)
KOWD - Norwood Memorial Airport (11 nm SW)
KBED - Laurence G Hanscom Field Airport (12 nm NW)
KBVY - Beverly Regional Airport (15 nm NE)
6B6 - Minute Man Air Field (21 nm W)
 
Loc | Ops | Rwys | IFR | FBO | Links
Com | Nav | Svcs | Stats | Notes
Area around 0MA1 (Massachusetts General Hospital Heliport)
 
Road maps at: MapQuest Bing Google
 
Aerial photo
No photo
 
Sectional chart

 
Airport distance calculator
Flying to Massachusetts General Hospital Heliport? Find the distance to fly.

From to 0MA1

Sunrise and sunset
Times for 19-Oct-2019
 Local
(UTC-4)
 Zulu
(UTC)
Morning civil twilight06:3410:34
Sunrise07:0311:03
Sunset17:5621:56
Evening civil twilight18:2422:24

Current date and time
Zulu (UTC)  19-Oct-2019 21:09:26
Local (UTC-4)  19-Oct-2019 17:09:26
 
METAR
KBOS 
2nm E 
192054Z 27006KT 10SM FEW250 16/01 A2998 RMK AO2 SLP151 T01610006 55000
KOWD 
12nm S 
192053Z 25003KT 10SM CLR 16/02 A2998 RMK AO2 SLP151 T01610017 55000
KBED 
12nm NW 
192051Z 27006KT 10SM CLR 17/01 A2996 RMK AO2 SLP160 T01670011 56001
KBVY 
15nm NE 
192053Z 29005KT 10SM CLR 15/02 A2996 RMK AO2 SLP143 T01500017 58001
TAF
KBOS 
2nm E 
191728Z 1918/2024 29008KT P6SM SKC FM201700 14006KT P6SM BKN250
KBED 
12nm NW 
191728Z 1918/2018 30006KT P6SM SKC FM192200 VRB05KT P6SM SKC
NOTAMs
Click for the latest NOTAMs
NOTAMs are issued by the DoD/FAA and will open in a separate window not controlled by AirNav.

 

 
 

Would you like to see your business listed on this page?

 If your business provides an interesting product or service to pilots, flight crews, aircraft, or users of the Massachusetts General Hospital Heliport, you should consider listing it here.  To start the listing process, click on the button below
 
Add a business
 

Other Pages about Massachusetts General Hospital Heliport

Update a link
 
Copyright © AirNav, LLC. All rights reserved. Privacy Policy  Contact